DO6HN-6 Weather Reports


Display with metric or nautical units.
time (UTC)temp
F
wind
direction
speed
MPH
gust
MPH
rain 1hr
in
rain 24hr
in
rain mn
in
humidity
%
barometer
mb
20260902153534 82 0.0 0.0 0.00 0.00 0.00 3 996.6
20260902152044 82 0.0 0.0 0.00 0.00 0.00 3 996.6
20260902150714 81 0.0 0.0 0.00 0.00 0.00 3 996.7
20260902145404 83 0.0 0.0 0.00 0.00 0.00 3 996.7
20260902144204 84 0.0 0.0 0.00 0.00 0.00 3 996.7
20260902142709 84 0.0 0.0 0.00 0.00 0.00 3 996.7
20260902141419 85 0.0 0.0 0.00 0.00 0.00 3 996.7
20260902140014 86 0.0 0.0 0.00 0.00 0.00 3 996.7
20260902134514 86 0.0 0.0 0.00 0.00 0.00 3 996.7
20260902133234 86 0.0 0.0 0.00 0.00 0.00 3 996.7
20260902131919 84 0.0 0.0 0.00 0.00 0.00 3 996.9
20260902130614 85 0.0 0.0 0.00 0.00 0.00 3 997.0
20260902125354 84 0.0 0.0 0.00 0.00 0.00 3 997.0
20260902124044 84 0.0 0.0 0.00 0.00 0.00 3 997.2
20260902122719 85 0.0 0.0 0.00 0.00 0.00 3 997.2
20260902121444 86 0.0 0.0 0.00 0.00 0.00 3 997.1
20260902120154 84 0.0 0.0 0.00 0.00 0.00 3 997.2
20260902114914 84 0.0 0.0 0.00 0.00 0.00 3 997.3
20260902113614 83 0.0 0.0 0.00 0.00 0.00 3 997.4
20260902112334 81 0.0 0.0 0.00 0.00 0.00 4 997.6
20260902110849 80 0.0 0.0 0.00 0.00 0.00 4 997.7
20260902105604 78 0.0 0.0 0.00 0.00 0.00 4 997.8
20260902104319 79 0.0 0.0 0.00 0.00 0.00 4 997.9
20260902103054 79 0.0 0.0 0.00 0.00 0.00 4 998.0
20260902101654 77 0.0 0.0 0.00 0.00 0.00 4 998.2
20260902100349 78 0.0 0.0 0.00 0.00 0.00 4 998.2
20260902095120 79 0.0 0.0 0.00 0.00 0.00 4 998.2
20260902093739 78 0.0 0.0 0.00 0.00 0.00 4 998.3
20260902092305 80 0.0 0.0 0.00 0.00 0.00 4 998.3
20260902090834 76 0.0 0.0 0.00 0.00 0.00 4 998.5
20260902085434 73 0.0 0.0 0.00 0.00 0.00 5 998.3
20260902083933 71 0.0 0.0 0.00 0.00 0.00 5 998.3
20260902082534 71 0.0 0.0 0.00 0.00 0.00 5 998.1
20260902081134 70 0.0 0.0 0.00 0.00 0.00 5 998.1
20260902075911 70 0.0 0.0 0.00 0.00 0.00 5 998.1
20260902074600 70 0.0 0.0 0.00 0.00 0.00 6 998.0
20260902073204 70 0.0 0.0 0.00 0.00 0.00 5 997.7
20260902071734 67 0.0 0.0 0.00 0.00 0.00 6 997.7
20260902070504 66 0.0 0.0 0.00 0.00 0.00 6 997.8
20260902065140 68 0.0 0.0 0.00 0.00 0.00 6 998.0
20260902063719 68 0.0 0.0 0.00 0.00 0.00 6 998.0
20260902062229 69 0.0 0.0 0.00 0.00 0.00 5 997.8
20260902060849 69 0.0 0.0 0.00 0.00 0.00 5 997.9
20260902055639 68 0.0 0.0 0.00 0.00 0.00 5 997.9
20260902054429 66 0.0 0.0 0.00 0.00 0.00 6 997.8
20260902053109 68 0.0 0.0 0.00 0.00 0.00 5 997.7
20260902051834 68 0.0 0.0 0.00 0.00 0.00 5 997.8
20260902050439 69 0.0 0.0 0.00 0.00 0.00 5 997.7
20260902045114 68 0.0 0.0 0.00 0.00 0.00 6 997.8
20260902043834 64 0.0 0.0 0.00 0.00 0.00 6 997.8
20260902042449 66 0.0 0.0 0.00 0.00 0.00 6 997.8
20260902041014 68 0.0 0.0 0.00 0.00 0.00 5 997.7
20260902035807 69 0.0 0.0 0.00 0.00 0.00 5 997.7
20260902034449 68 0.0 0.0 0.00 0.00 0.00 6 997.8
20260902033124 70 0.0 0.0 0.00 0.00 0.00 5 997.6
20260902031920 69 0.0 0.0 0.00 0.00 0.00 5 997.7
20260902030610 69 0.0 0.0 0.00 0.00 0.00 5 997.8
20260902025220 69 0.0 0.0 0.00 0.00 0.00 5 997.8
20260902023924 68 0.0 0.0 0.00 0.00 0.00 5 997.8
20260902022539 69 0.0 0.0 0.00 0.00 0.00 5 997.8
20260902021329 70 0.0 0.0 0.00 0.00 0.00 5 997.7
20260902020034 70 0.0 0.0 0.00 0.00 0.00 5 997.7
20260902014744 71 0.0 0.0 0.00 0.00 0.00 5 997.7
20260902013451 70 0.0 0.0 0.00 0.00 0.00 5 997.6
20260902012134 69 0.0 0.0 0.00 0.00 0.00 5 997.8
20260902010819 71 0.0 0.0 0.00 0.00 0.00 5 997.8
20260902005559 72 0.0 0.0 0.00 0.00 0.00 5 997.8
20260902004309 72 0.0 0.0 0.00 0.00 0.00 5 997.9
20260902002959 72 0.0 0.0 0.00 0.00 0.00 5 998.0
20260902001614 71 0.0 0.0 0.00 0.00 0.00 5 998.1
20260902000124 72 0.0 0.0 0.00 0.00 0.00 5 998.2
20260901234739 73 0.0 0.0 0.00 0.00 0.00 5 998.2
20260901233320 73 0.0 0.0 0.00 0.00 0.00 5 998.1
20260901232054 74 0.0 0.0 0.00 0.00 0.00 4 998.2
20260901230659 74 0.0 0.0 0.00 0.00 0.00 4 998.1
20260901225300 74 0.0 0.0 0.00 0.00 0.00 4 998.2
20260901223809 74 0.0 0.0 0.00 0.00 0.00 4 998.2
20260901222359 75 0.0 0.0 0.00 0.00 0.00 4 998.2
20260901220939 74 0.0 0.0 0.00 0.00 0.00 4 998.1
20260901215620 75 0.0 0.0 0.00 0.00 0.00 4 998.1
20260901214204 75 0.0 0.0 0.00 0.00 0.00 4 998.0
20260901212705 75 0.0 0.0 0.00 0.00 0.00 4 998.0
20260901211424 76 0.0 0.0 0.00 0.00 0.00 4 998.0
20260901210114 76 0.0 0.0 0.00 0.00 0.00 4 998.0
20260901204619 76 0.0 0.0 0.00 0.00 0.00 4 998.0
20260901203124 78 0.0 0.0 0.00 0.00 0.00 4 997.9
20260901201820 78 0.0 0.0 0.00 0.00 0.00 4 997.9
20260901200349 78 0.0 0.0 0.00 0.00 0.00 4 997.8
20260901194904 79 0.0 0.0 0.00 0.00 0.00 4 997.8
20260901193619 79 0.0 0.0 0.00 0.00 0.00 4 997.7
20260901192334 79 0.0 0.0 0.00 0.00 0.00 4 997.7
20260901190940 79 0.0 0.0 0.00 0.00 0.00 4 997.6
20260901185734 80 0.0 0.0 0.00 0.00 0.00 3 997.5
20260901184449 80 0.0 0.0 0.00 0.00 0.00 3 997.5
20260901183100 82 0.0 0.0 0.00 0.00 0.00 3 997.4
20260901181640 84 0.0 0.0 0.00 0.00 0.00 3 997.2
20260901180259 84 0.0 0.0 0.00 0.00 0.00 3 997.1
20260901175024 84 0.0 0.0 0.00 0.00 0.00 3 997.1
20260901173605 83 0.0 0.0 0.00 0.00 0.00 3 997.1
20260901172309 84 0.0 0.0 0.00 0.00 0.00 3 997.1
20260901170819 84 0.0 0.0 0.00 0.00 0.00 3 997.2
20260901165524 85 0.0 0.0 0.00 0.00 0.00 3 997.2
20260901164220 83 0.0 0.0 0.00 0.00 0.00 3 997.2
20260901163000 82 0.0 0.0 0.00 0.00 0.00 3 997.3
20260901161624 86 0.0 0.0 0.00 0.00 0.00 3 997.2
20260901160319 85 0.0 0.0 0.00 0.00 0.00 3 997.3
20260901154954 85 0.0 0.0 0.00 0.00 0.00 3 997.3